QPF
0.00 0.00 0.00 0.00 0.00 0.00 0.00 0.00 0.00 0.00 0.00 0.00 0.00 0.00 0.00 0.00 0.00 0.00 0.00 0.00 0.00 0.00 0.00 0.00 0.00 0.00 0.00 0.00 0.00 0.00 0.00 0.00 0.00 0.00 0.00 0.00 0.00 0.00 0.00 0.00 0.00 0.00 0.00
0.00 0.00 0.00 0.00 0.00 0.00 0.00 0.00 0.00 0.00 0.00 0.00 0.00 0.00 0.00 0.00 0.00 0.00 0.00 0.00 0.00 0.00 0.00 0.00 0.00 0.00 0.00 0.00 0.00 0.00 0.00 0.00 0.00 0.00 0.00 0.00 0.00 0.00 0.00 0.00 0.00 0.00 0.00
0.00 0.00 0.00 0.00 0.00 0.00 0.00 0.00 0.00 0.00 0.00 0.00 0.00 0.00 0.00 0.00 0.00 0.00 0.00 0.00 0.00 0.00 0.00 0.00 0.00 0.00 0.00 0.00 0.00 0.00 0.00 0.00 0.00 0.00 0.00 0.00 0.00 0.00 0.00 0.00 0.00 0.00 0.00
0.00 0.00 0.00 0.00 0.00 0.00 0.00 0.00 0.00 0.00 0.00 0.00 0.00 0.00 0.00 0.00 0.00 0.00 0.00 0.00 0.00 0.00 0.00 0.00 0.00 0.00 0.00 0.00 0.00 0.00 0.00 0.00 0.00 0.00 0.00 0.00 0.00 0.00 0.00 0.00 0.00 0.00 0.00
0.00 0.00 0.00 0.00 0.00 0.00 0.00 0.00 0.00 0.00 0.00 0.00 0.00 0.00 0.00 0.00 0.00 0.00 0.00 0.00 0.00 0.00 0.00 0.00 0.00 0.00 0.00 0.00 0.00 0.00 0.00 0.00 0.00 0.00 0.00 0.00 0.00 0.00 0.00 0.00 0.00 0.00 0.00
0.00 0.00 0.00 0.00 0.00 0.00 0.00 0.00 0.00 0.00 0.00 0.00 0.00 0.00 0.00 0.00 0.00 0.00 0.00 0.00 0.00 0.00 0.00 0.00 0.00 0.00 0.00 0.00 0.00 0.00 0.00 0.00 0.00 0.00 0.00 0.00 0.00 0.00 0.00 0.00 0.00 0.00 0.00
0.00 0.00 0.00 0.00 0.00 0.00 0.00 0.00 0.00 0.00 0.00 0.00 0.00 0.00 0.00 0.00 0.00 0.00 0.00 0.00 0.00 0.00 0.00 0.00 0.00 0.00 0.00 0.00 0.00 0.00 0.00 0.00 0.00 0.00 0.00 0.00 0.00 0.00 0.00 0.00 0.00 0.00 0.00
0.00 0.00 0.00 0.00 0.00 0.00 0.00 0.00 0.00 0.00 0.00 0.00 0.00 0.00 0.00 0.00 0.00 0.00 0.00 0.00 0.00 0.00 0.00 0.00 0.00 0.00 0.00 0.00 0.00 0.00 0.00 0.00 0.00 0.00 0.00 0.00 0.00 0.00 0.00 0.00 0.01 0.01 0.00
0.00 0.00 0.00 0.00 0.00 0.00 0.00 0.00 0.00 0.00 0.00 0.00 0.00 0.00 0.00 0.00 0.00 0.00 0.00 0.00 0.00 0.00 0.00 0.00 0.00 0.00 0.00 0.00 0.00 0.00 0.00 0.00 0.00 0.00 0.00 0.00 0.00 0.00 0.00 0.00 0.00 0.00 0.00
0.00 0.00 0.00 0.00 0.00 0.00 0.00 0.00 0.00 0.00 0.00 0.00 0.00 0.00 0.00 0.00 0.00 0.00 0.00 0.00 0.00 0.00 0.00 0.00 0.00 0.00 0.00 0.00 0.00 0.00 0.00 0.00 0.00 0.00 0.00 0.00 0.00 0.00 0.00 0.00 0.00 0.01 0.01
0.00 0.00 0.00 0.00 0.00 0.00 0.00 0.00 0.00 0.00 0.00 0.00 0.00 0.00 0.00 0.00 0.00 0.00 0.00 0.00 0.00 0.00 0.00 0.00 0.00 0.00 0.00 0.00 0.00 0.00 0.00 0.00 0.00 0.00 0.00 0.00 0.00 0.00 0.03 0.06 0.04 0.03 0.01
0.00 0.00 0.00 0.00 0.00 0.00 0.00 0.00 0.00 0.00 0.00 0.00 0.00 0.00 0.00 0.00 0.00 0.00 0.00 0.00 0.00 0.00 0.00 0.00 0.00 0.00 0.00 0.00 0.00 0.00 0.00 0.00 0.00 0.00 0.00 0.00 0.00 0.00 0.01 0.01 0.01 0.01 0.03
0.00 0.00 0.00 0.00 0.00 0.00 0.00 0.00 0.00 0.00 0.00 0.00 0.00 0.00 0.00 0.00 0.00 0.00 0.00 0.00 0.00 0.00 0.00 0.00 0.00 0.00 0.00 0.00 0.00 0.00 0.00 0.00 0.00 0.00 0.00 0.00 0.00 0.00 0.00 0.00 0.00 0.00 0.00
0.00 0.00 0.00 0.00 0.00 0.00 0.00 0.00 0.00 0.00 0.00 0.00 0.00 0.00 0.00 0.00 0.00 0.00 0.00 0.00 0.00 0.00 0.00 0.00 0.00 0.00 0.00 0.00 0.00 0.00 0.00 0.00 0.00 0.00 0.00 0.01 0.01 0.00 0.00 0.00 0.00 0.00 0.00
0.00 0.00 0.00 0.00 0.00 0.00 0.00 0.00 0.00 0.00 0.00 0.00 0.00 0.00 0.00 0.00 0.00 0.00 0.00 0.00 0.00 0.00 0.00 0.00 0.00 0.00 0.00 0.00 0.00 0.00 0.00 0.01 0.00 0.00 0.00 0.00 0.00 0.00 0.00 0.00 0.00 0.00 0.00
0.00 0.00 0.00 0.00 0.00 0.00 0.00 0.00 0.00 0.02 0.01 0.00 0.02 0.05 0.05 0.01 0.03 0.02 0.00 0.00 0.00 0.00 0.00 0.00 0.00 0.00 0.00 0.00 0.00 0.00 0.00 0.01 0.00 0.00 0.00 0.00 0.00 0.00 0.00 0.00 0.00 0.00 0.00
0.01 0.00 0.00 0.00 0.00 0.00 0.00 0.00 0.00 0.05 0.03 0.00 0.04 0.11 0.18 0.21 0.10 0.11 0.12 0.03 0.00 0.00 0.00 0.00 0.00 0.00 0.00 0.00 0.00 0.00 0.00 0.00 0.00 0.00 0.00 0.00 0.00 0.00 0.00 0.00 0.00 0.00 0.00
0.00 0.01 0.01 0.01 0.01 0.02 0.02 0.01 0.02 0.05 0.02 0.00 0.01 0.00 0.03 0.11 0.18 0.18 0.16 0.05 0.00 0.00 0.00 0.00 0.00 0.00 0.00 0.00 0.00 0.00 0.00 0.00 0.00 0.00 0.00 0.00 0.00 0.00 0.00 0.00 0.00 0.00 0.00
0.05 0.03 0.03 0.04 0.04 0.04 0.05 0.04 0.02 0.03 0.07 0.05 0.02 0.01 0.00 0.02 0.06 0.04 0.05 0.01 0.00 0.01 0.04 0.02 0.00 0.01 0.01 0.00 0.00 0.00 0.00 0.00 0.00 0.00 0.00 0.00 0.00 0.00 0.00 0.00 0.00 0.00 0.00
0.07 0.07 0.02 0.02 0.03 0.01 0.01 0.00 0.01 0.01 0.02 0.04 0.02 0.00 0.00 0.00 0.03 0.01 0.01 0.00 0.03 0.14 0.10 0.08 0.02 0.02 0.01 0.00 0.00 0.00 0.00 0.00 0.00 0.00 0.00 0.00 0.00 0.00 0.00 0.00 0.00 0.00 0.00
0.04 0.03 0.01 0.03 0.04 0.01 0.00 0.02 0.01 0.01 0.01 0.00 0.00 0.00 0.00 0.00 0.00 0.00 0.00 0.00 0.01 0.05 0.06 0.03 0.02 0.01 0.00 0.00 0.01 0.01 0.00 0.00 0.00 0.00 0.00 0.00 0.00 0.00 0.00 0.00 0.00 0.00 0.00
0.00 0.00 0.00 0.00 0.00 0.01 0.00 0.02 0.06 0.05 0.01 0.00 0.00 0.00 0.00 0.00 0.00 0.00 0.00 0.00 0.01 0.01 0.00 0.00 0.00 0.00 0.00 0.00 0.00 0.00 0.00 0.00 0.00 0.00 0.00 0.00 0.00 0.00 0.00 0.00 0.00 0.00 0.00
0.00 0.00 0.00 0.00 0.00 0.00 0.00 0.00 0.02 0.02 0.00 0.00 0.00 0.00 0.00 0.00 0.00 0.00 0.00 0.01 0.02 0.01 0.00 0.00 0.00 0.00 0.00 0.00 0.00 0.00 0.00 0.00 0.00 0.00 0.00 0.00 0.00 0.00 0.00 0.00 0.00 0.00 0.00
0.01 0.02 0.00 0.00 0.00 0.00 0.00 0.00 0.01 0.01 0.00 0.01 0.01 0.00 0.01 0.02 0.00 0.00 0.00 0.00 0.00 0.01 0.01 0.00 0.00 0.00 0.00 0.00 0.00 0.00 0.00 0.00 0.00 0.00 0.00 0.00 0.00 0.00 0.00 0.00 0.00 0.00 0.00
0.00 0.00 0.01 0.00 0.00 0.00 0.00 0.00 0.00 0.00 0.01 0.00 0.01 0.01 0.01 0.00 0.00 0.00 0.00 0.00 0.00 0.00 0.00 0.00 0.00 0.00 0.00 0.00 0.00 0.00 0.00 0.00 0.00 0.00 0.00 0.00 0.00 0.00 0.00 0.00 0.00 0.00 0.00
0.00 0.00 0.00 0.00 0.00 0.00 0.00 0.00 0.00 0.00 0.00 0.00 0.01 0.01 0.00 0.00 0.00 0.00 0.00 0.00 0.00 0.00 0.00 0.00 0.00 0.00 0.00 0.00 0.00 0.00 0.00 0.00 0.00 0.00 0.00 0.00 0.00 0.00 0.00 0.00 0.00 0.00 0.00
MSLP
1010.34 1011.04 1011.71 1012.46 1013.32 1014.13 1014.30 1014.76 1015.17 1015.55 1015.73 1016.23 1016.50 1016.86 1017.18 1017.44 1017.72 1018.07 1018.34 1018.10 1018.66 1018.85 1018.89 1018.86 1019.16 1019.30 1018.93 1018.43 1018.48 1018.52 1018.40 1018.30 1018.05 1017.66 1017.33 1017.14 1017.32 1017.64 1017.60 1017.64 1017.53 1017.22 1016.87
1008.92 1009.90 1010.70 1011.47 1012.20 1012.86 1013.58 1013.98 1014.58 1015.16 1015.52 1015.79 1016.32 1016.55 1016.85 1017.05 1017.30 1017.65 1018.04 1017.83 1018.08 1018.28 1018.46 1018.73 1018.84 1018.87 1019.06 1019.00 1018.69 1018.38 1018.20 1018.11 1018.09 1017.82 1017.72 1017.52 1017.29 1017.00 1016.85 1016.87 1016.76 1016.49 1016.32
1008.01 1008.75 1009.64 1010.30 1010.98 1011.52 1012.48 1013.26 1013.81 1014.39 1014.90 1015.22 1015.62 1015.99 1016.33 1016.60 1016.81 1017.09 1017.43 1017.68 1017.64 1017.80 1017.95 1018.10 1018.28 1018.50 1018.60 1018.48 1018.37 1018.19 1017.87 1017.97 1017.94 1017.67 1017.22 1016.94 1016.64 1016.44 1016.17 1015.98 1015.72 1015.33 1015.14
1006.61 1007.55 1008.29 1009.01 1009.64 1010.52 1011.27 1012.18 1012.75 1013.41 1013.98 1014.45 1014.72 1015.12 1015.56 1015.97 1016.23 1016.50 1016.75 1017.06 1017.24 1017.26 1017.35 1017.52 1017.72 1017.86 1018.03 1018.23 1018.38 1018.28 1018.16 1018.04 1017.72 1017.40 1016.89 1016.36 1015.83 1015.48 1015.30 1014.98 1014.45 1014.13 1013.98
1005.13 1006.09 1006.66 1007.67 1008.75 1009.49 1010.27 1010.98 1011.83 1012.40 1012.99 1013.53 1014.02 1014.36 1014.75 1015.12 1015.40 1015.76 1016.00 1016.22 1016.62 1016.78 1016.68 1016.89 1017.08 1017.24 1017.42 1017.67 1017.71 1017.62 1017.68 1017.55 1017.26 1016.84 1016.23 1015.76 1015.28 1014.92 1014.96 1014.88 1014.56 1013.87 1013.52
1003.93 1004.62 1005.75 1006.96 1007.87 1008.48 1009.24 1010.02 1010.90 1011.50 1012.13 1012.73 1013.12 1013.53 1013.90 1014.12 1014.31 1014.82 1015.32 1015.54 1015.75 1015.97 1016.05 1016.18 1016.30 1016.46 1016.84 1017.18 1017.38 1017.52 1017.59 1017.68 1017.42 1017.00 1016.42 1015.95 1015.70 1015.55 1015.05 1014.96 1014.61 1013.94 1013.09
1003.21 1004.20 1005.13 1006.03 1006.94 1007.64 1008.40 1009.18 1009.80 1010.46 1011.14 1011.72 1012.22 1012.61 1012.92 1013.30 1013.55 1014.00 1014.49 1014.84 1014.99 1015.19 1015.33 1015.50 1015.62 1015.48 1015.84 1016.20 1016.50 1016.77 1016.88 1016.89 1016.98 1017.05 1016.69 1016.30 1015.88 1015.80 1015.52 1015.25 1015.02 1014.39 1013.39
1002.37 1003.23 1004.32 1005.12 1006.07 1006.95 1007.62 1008.15 1008.88 1009.53 1010.02 1010.64 1011.19 1011.62 1012.04 1012.40 1012.95 1013.44 1013.88 1014.32 1014.47 1014.55 1014.59 1014.82 1015.02 1015.12 1015.25 1015.40 1015.52 1015.59 1015.72 1015.73 1015.68 1015.76 1015.78 1015.66 1015.66 1015.51 1015.30 1014.79 1014.60 1014.15 1013.46
1001.34 1002.21 1003.03 1004.08 1005.13 1006.14 1006.72 1007.32 1008.02 1008.66 1009.16 1009.51 1010.05 1010.58 1011.01 1011.52 1011.98 1012.67 1013.47 1013.76 1013.83 1013.92 1014.03 1014.20 1014.26 1014.40 1014.65 1015.08 1015.38 1015.21 1015.07 1014.69 1014.27 1014.69 1014.74 1014.62 1014.64 1014.74 1014.71 1014.66 1014.14 1013.52 1012.58
1000.26 1000.92 1002.24 1003.39 1004.18 1004.95 1005.68 1006.42 1007.04 1007.60 1008.00 1008.46 1008.91 1009.47 1010.08 1010.56 1011.16 1011.81 1012.54 1012.79 1012.76 1012.96 1013.16 1013.39 1013.55 1013.79 1014.07 1014.40 1014.72 1014.74 1014.51 1014.34 1014.16 1013.80 1013.88 1013.97 1014.01 1013.72 1014.01 1013.95 1013.45 1013.29 1012.82
999.85 1000.85 1001.83 1002.75 1003.49 1004.31 1005.15 1005.77 1006.41 1006.86 1007.21 1007.79 1008.02 1008.48 1009.08 1009.74 1010.22 1010.79 1011.48 1011.94 1011.67 1011.70 1011.80 1011.64 1011.96 1012.42 1013.05 1013.55 1013.86 1013.99 1013.86 1013.99 1013.81 1013.64 1013.38 1013.06 1012.95 1012.62 1012.45 1012.70 1013.00 1013.04 1012.52
999.13 1000.08 1001.09 1002.17 1003.00 1003.69 1004.59 1005.21 1005.79 1006.51 1006.95 1007.12 1007.73 1007.80 1007.96 1008.62 1009.28 1009.95 1010.60 1011.13 1011.15 1011.02 1010.64 1010.44 1010.77 1011.13 1011.59 1012.17 1012.75 1013.17 1013.42 1013.70 1013.70 1013.21 1012.92 1012.65 1012.16 1011.75 1011.94 1012.29 1012.22 1011.96 1011.74
998.69 999.62 1000.52 1001.62 1002.48 1002.94 1003.85 1004.59 1005.28 1005.88 1006.12 1006.61 1006.75 1007.18 1007.00 1007.10 1008.07 1008.90 1009.71 1010.16 1010.47 1010.91 1010.62 1010.48 1010.90 1011.08 1011.40 1011.98 1012.34 1012.66 1012.93 1013.15 1012.98 1012.62 1012.28 1011.84 1011.89 1012.13 1012.46 1012.19 1011.38 1010.88 1010.75
998.72 999.48 1000.11 1000.93 1001.76 1002.37 1003.06 1003.90 1004.42 1004.63 1005.27 1005.31 1005.75 1005.79 1006.07 1006.21 1006.24 1006.88 1008.47 1009.62 1009.99 1010.38 1010.53 1010.47 1010.46 1010.76 1011.20 1011.22 1011.43 1011.96 1012.19 1012.06 1011.90 1011.82 1011.69 1012.00 1012.38 1012.23 1011.62 1011.08 1010.73 1010.45 1010.34
998.73 999.18 999.64 1000.28 1001.25 1001.80 1002.10 1002.95 1003.46 1003.41 1004.07 1004.82 1004.89 1005.00 1004.98 1005.24 1005.22 1005.45 1005.84 1007.18 1008.18 1008.81 1009.42 1009.72 1009.74 1009.93 1010.00 1010.10 1010.16 1010.54 1010.95 1011.24 1011.32 1011.27 1011.68 1011.92 1011.71 1011.28 1010.80 1010.43 1010.51 1010.50 1010.44
998.78 998.84 999.03 999.25 1000.35 1000.82 1001.41 1003.10 1004.14 1003.91 1004.48 1004.82 1005.52 1005.80 1005.72 1006.13 1006.16 1005.94 1005.78 1006.21 1006.84 1007.49 1008.74 1008.50 1008.45 1008.58 1008.68 1008.93 1009.11 1009.69 1010.08 1010.56 1010.69 1011.23 1011.52 1011.31 1010.88 1010.40 1010.26 1010.30 1010.54 1010.56 1010.58
998.96 998.84 998.26 998.56 999.19 999.60 1000.40 1001.72 1003.36 1005.00 1004.79 1005.08 1005.14 1005.56 1006.30 1006.48 1006.82 1007.37 1007.70 1007.38 1007.02 1007.41 1007.44 1007.60 1007.47 1007.40 1008.18 1008.74 1009.33 1009.66 1009.96 1010.30 1010.66 1010.74 1010.50 1010.56 1010.19 1010.20 1010.42 1010.49 1010.64 1010.68 1010.29
999.29 998.90 998.26 998.55 998.58 999.07 1000.13 1001.01 1001.78 1003.02 1003.84 1004.47 1005.48 1005.82 1006.73 1006.60 1006.98 1007.38 1007.83 1007.66 1007.93 1008.18 1007.19 1006.99 1007.21 1007.85 1008.13 1008.54 1008.98 1009.30 1009.66 1009.87 1009.94 1009.84 1009.95 1009.90 1010.02 1010.11 1010.14 1010.41 1010.65 1010.50 1009.97
1000.27 999.76 999.64 999.68 999.72 999.90 1000.95 1001.37 1002.22 1003.00 1003.44 1004.02 1004.91 1005.62 1006.22 1007.00 1007.17 1007.46 1007.23 1006.98 1007.03 1006.99 1007.38 1007.41 1007.46 1007.87 1008.36 1008.74 1009.03 1009.42 1009.44 1009.69 1009.66 1009.47 1009.54 1009.67 1009.87 1010.10 1010.25 1010.59 1010.63 1010.69 1010.67
1001.67 1000.60 1000.34 1000.24 1000.80 1001.46 1001.03 1001.21 1001.66 1003.03 1002.41 1003.18 1002.41 1002.12 1005.21 1006.68 1007.23 1006.84 1007.24 1007.22 1007.14 1007.10 1007.47 1007.84 1007.87 1008.12 1008.35 1008.65 1008.84 1009.20 1009.26 1009.66 1009.78 1009.83 1009.80 1009.89 1010.39 1010.84 1010.55 1010.50 1010.46 1010.57 1010.58
1002.84 1001.25 1000.63 1001.12 1001.55 1001.66 1002.03 1001.25 1002.48 1002.44 1003.06 1002.10 1000.64 1004.43 1005.35 1006.06 1006.85 1006.32 1007.00 1007.88 1007.74 1007.32 1007.50 1007.60 1008.12 1008.47 1009.04 1009.00 1009.20 1009.57 1009.45 1009.40 1009.73 1010.15 1010.64 1010.80 1011.00 1011.07 1010.52 1010.45 1010.10 1010.15 1010.45
1004.10 1001.48 1000.90 1001.00 1001.24 1001.52 1001.80 1001.38 1001.51 1003.71 1002.70 1002.91 1002.54 1005.36 1005.43 1006.56 1006.57 1006.99 1007.68 1008.11 1008.46 1008.42 1008.38 1008.46 1008.71 1009.13 1009.19 1009.44 1009.71 1009.83 1009.76 1009.70 1009.72 1009.91 1009.85 1009.88 1010.10 1010.37 1010.84 1010.67 1010.35 1009.78 1009.53
1003.89 1003.16 1002.04 1001.88 1002.04 1002.19 1001.74 1002.72 1004.03 1004.50 1003.76 1003.38 1004.33 1005.54 1006.20 1006.40 1006.46 1007.14 1007.78 1008.32 1008.93 1009.06 1009.02 1009.11 1009.16 1009.45 1009.54 1009.57 1009.82 1009.98 1009.71 1009.72 1010.04 1010.17 1010.25 1010.21 1009.93 1009.64 1010.26 1010.21 1009.70 1008.76 1008.06
1004.78 1004.69 1004.98 1004.37 1003.72 1003.43 1003.97 1004.19 1004.90 1005.30 1005.45 1005.44 1005.80 1005.58 1005.87 1006.65 1007.12 1007.89 1008.94 1009.64 1009.95 1009.91 1010.07 1010.28 1010.44 1010.42 1010.19 1009.99 1010.30 1010.45 1011.74 1012.08 1011.81 1010.92 1010.82 1010.35 1009.86 1009.46 1009.00 1008.90 1009.20 1008.81 1008.50
1006.98 1006.26 1007.00 1007.52 1006.37 1005.07 1005.34 1005.52 1005.96 1006.49 1007.54 1008.18 1008.26 1008.11 1008.24 1008.67 1008.66 1009.06 1009.86 1009.82 1010.01 1010.51 1010.72 1010.86 1011.08 1011.40 1011.72 1012.27 1012.77 1012.95 1013.53 1013.33 1012.66 1012.45 1011.07 1010.36 1009.68 1009.23 1008.90 1008.64 1008.64 1008.73 1008.86
1009.80 1009.14 1008.76 1008.28 1008.14 1008.42 1008.66 1008.34 1008.64 1009.16 1009.26 1009.71 1010.72 1010.55 1009.52 1009.94 1010.72 1010.79 1010.47 1010.47 1010.85 1011.32 1011.75 1011.88 1012.05 1012.40 1013.01 1013.79 1014.15 1014.27 1013.73 1013.25 1012.53 1012.25 1011.57 1010.15 1009.40 1009.25 1009.16 1009.00 1008.73 1008.75 1008.59
Thickness
5819 5819 5817 5815 5813 5809 5810 5809 5809 5809 5811 5808 5807 5806 5804 5804 5803 5802 5801 5805 5800 5798 5798 5797 5794 5795 5798 5804 5805 5805 5805 5804 5797 5807 5816 5819 5817 5814 5814 5812 5813 5813 5813
5826 5823 5822 5820 5818 5816 5813 5814 5812 5810 5810 5810 5807 5807 5806 5806 5806 5804 5800 5805 5804 5802 5801 5797 5796 5799 5797 5799 5803 5805 5807 5810 5805 5801 5809 5813 5816 5821 5821 5820 5819 5818 5816
5827 5825 5822 5823 5823 5824 5820 5817 5817 5815 5813 5813 5811 5809 5808 5808 5809 5808 5805 5803 5806 5806 5805 5802 5801 5800 5799 5802 5805 5806 5811 5811 5811 5809 5811 5819 5822 5825 5825 5827 5828 5828 5825
5833 5830 5828 5829 5830 5828 5827 5823 5823 5821 5818 5817 5817 5815 5814 5813 5813 5812 5809 5807 5806 5808 5809 5807 5806 5805 5804 5804 5804 5806 5808 5808 5811 5812 5815 5820 5825 5831 5831 5827 5829 5836 5831
5841 5838 5840 5837 5833 5831 5829 5829 5827 5826 5824 5821 5819 5819 5818 5818 5818 5815 5814 5811 5808 5807 5811 5811 5811 5811 5810 5810 5810 5811 5811 5812 5814 5816 5818 5823 5825 5827 5823 5827 5826 5832 5833
5848 5846 5843 5837 5834 5834 5832 5831 5828 5827 5825 5823 5823 5821 5821 5823 5824 5820 5817 5814 5814 5812 5811 5814 5816 5814 5813 5811 5811 5812 5812 5809 5810 5812 5816 5816 5818 5821 5827 5823 5824 5824 5822
5848 5844 5842 5839 5835 5834 5834 5830 5830 5830 5828 5825 5824 5825 5825 5826 5826 5823 5819 5819 5817 5816 5815 5815 5817 5822 5819 5820 5817 5816 5815 5815 5813 5813 5811 5813 5816 5818 5821 5818 5816 5819 5823
5850 5848 5844 5841 5837 5835 5834 5834 5832 5831 5830 5828 5827 5827 5827 5830 5827 5823 5820 5821 5819 5819 5820 5818 5818 5819 5822 5823 5824 5824 5823 5824 5823 5822 5821 5821 5821 5821 5821 5823 5821 5820 5825
5852 5851 5850 5846 5840 5835 5834 5834 5833 5831 5831 5833 5832 5830 5830 5831 5829 5825 5819 5821 5820 5819 5821 5822 5822 5823 5824 5822 5822 5822 5824 5827 5830 5830 5829 5829 5829 5827 5823 5820 5817 5816 5818
5858 5859 5853 5846 5842 5839 5838 5835 5835 5834 5834 5834 5833 5835 5833 5833 5831 5827 5823 5825 5822 5822 5824 5825 5825 5825 5826 5824 5824 5823 5821 5824 5827 5829 5831 5832 5830 5828 5826 5821 5820 5810 5811
5860 5855 5851 5848 5843 5838 5835 5834 5833 5833 5834 5833 5835 5836 5835 5835 5835 5829 5826 5828 5829 5828 5829 5833 5836 5832 5829 5827 5825 5828 5828 5828 5828 5828 5830 5832 5830 5830 5830 5824 5819 5813 5809
5859 5854 5850 5845 5842 5838 5832 5831 5831 5829 5827 5829 5828 5831 5836 5837 5834 5830 5827 5826 5830 5831 5834 5841 5842 5840 5836 5833 5830 5830 5826 5823 5824 5825 5825 5825 5827 5829 5828 5822 5817 5816 5814
5853 5849 5847 5842 5840 5839 5832 5828 5826 5826 5826 5825 5827 5826 5833 5840 5838 5832 5827 5826 5826 5827 5834 5836 5833 5834 5832 5828 5826 5827 5823 5823 5821 5821 5821 5825 5824 5823 5817 5816 5818 5819 5817
5843 5841 5842 5838 5837 5837 5835 5831 5828 5829 5827 5830 5829 5831 5834 5838 5844 5846 5836 5828 5825 5826 5827 5831 5833 5831 5829 5832 5831 5825 5825 5825 5823 5820 5821 5818 5814 5811 5813 5817 5814 5814 5809
5835 5836 5838 5838 5834 5834 5837 5834 5833 5836 5835 5832 5835 5836 5836 5838 5846 5851 5850 5842 5838 5835 5830 5829 5829 5829 5830 5831 5832 5830 5827 5824 5820 5819 5813 5808 5808 5809 5810 5813 5808 5805 5798
5823 5829 5835 5837 5834 5835 5834 5825 5814 5822 5821 5822 5819 5823 5827 5826 5830 5835 5839 5840 5839 5834 5826 5829 5830 5831 5830 5830 5830 5825 5822 5818 5816 5809 5804 5804 5804 5806 5804 5802 5799 5794 5789
5811 5821 5834 5835 5836 5836 5834 5826 5817 5808 5811 5813 5816 5817 5815 5821 5819 5818 5818 5820 5824 5825 5829 5827 5829 5833 5826 5823 5818 5815 5811 5809 5806 5802 5802 5800 5802 5799 5793 5790 5787 5784 5784
5803 5810 5825 5826 5831 5831 5826 5823 5824 5819 5817 5818 5807 5809 5802 5810 5812 5810 5806 5809 5814 5813 5824 5824 5823 5818 5817 5814 5811 5808 5804 5801 5799 5798 5795 5796 5793 5790 5786 5782 5777 5776 5778
5780 5791 5799 5805 5810 5814 5810 5811 5808 5807 5810 5807 5806 5803 5799 5792 5796 5797 5801 5810 5809 5811 5811 5810 5810 5808 5805 5801 5798 5794 5792 5790 5789 5790 5789 5787 5783 5780 5776 5771 5769 5763 5760
5762 5774 5784 5792 5792 5791 5799 5801 5796 5792 5802 5797 5810 5822 5799 5790 5790 5797 5797 5799 5800 5799 5798 5793 5795 5795 5792 5789 5788 5783 5782 5778 5776 5775 5775 5774 5768 5762 5763 5762 5761 5756 5752
5738 5758 5770 5770 5771 5776 5773 5781 5777 5780 5784 5799 5819 5789 5778 5786 5781 5790 5785 5778 5778 5784 5782 5783 5779 5777 5773 5775 5773 5768 5769 5769 5767 5762 5757 5755 5753 5749 5754 5752 5754 5750 5743
5716 5743 5751 5759 5766 5768 5759 5771 5772 5755 5778 5778 5795 5773 5774 5771 5774 5769 5764 5763 5760 5762 5765 5764 5763 5761 5761 5759 5755 5754 5755 5756 5757 5756 5754 5753 5749 5745 5738 5737 5736 5739 5738
5706 5717 5734 5744 5751 5754 5763 5757 5746 5745 5759 5770 5768 5760 5758 5759 5762 5758 5753 5749 5744 5745 5747 5747 5748 5746 5746 5747 5743 5742 5746 5747 5744 5742 5739 5738 5737 5738 5731 5727 5729 5735 5738
5690 5697 5698 5712 5728 5735 5733 5737 5735 5733 5737 5741 5741 5750 5753 5748 5744 5738 5730 5724 5723 5725 5725 5724 5723 5724 5728 5729 5726 5726 5717 5715 5716 5722 5722 5724 5725 5726 5728 5727 5721 5722 5721
5659 5672 5662 5661 5691 5708 5712 5713 5714 5714 5709 5706 5710 5714 5716 5714 5715 5714 5708 5710 5710 5707 5706 5705 5704 5703 5701 5697 5694 5693 5692 5694 5696 5698 5704 5708 5712 5713 5713 5713 5711 5707 5703
5624 5636 5643 5652 5656 5658 5662 5671 5672 5674 5678 5677 5672 5677 5688 5687 5681 5683 5688 5691 5690 5687 5683 5683 5683 5681 5677 5670 5668 5671 5676 5679 5682 5684 5685 5692 5698 5696 5696 5694 5692 5691 5690